Temp
-17 -17 -17 -17 -17 -17 -17 -17 -17 -17 -17 -17 -17 -17 -17 -18 -19 -20 -21 -22 -22 -22 -22 -22 -22 -22 -22 -22 -22 -22 -22 -22 -22 -21 -21 -21 -21 -21 -21 -21 -21 -21 -20
-18 -18 -18 -18 -18 -18 -17 -17 -17 -17 -18 -18 -18 -19 -20 -21 -22 -23 -22 -22 -22 -22 -22 -22 -22 -23 -23 -23 -23 -23 -23 -22 -22 -22 -22 -22 -22 -22 -22 -22 -22 -21 -21
-18 -18 -18 -18 -18 -18 -18 -18 -19 -18 -19 -20 -20 -22 -23 -23 -22 -22 -22 -22 -22 -22 -22 -22 -22 -22 -22 -22 -22 -23 -23 -23 -23 -22 -22 -22 -22 -22 -22 -23 -22 -22 -21
-18 -18 -18 -19 -19 -19 -19 -20 -20 -20 -20 -22 -23 -23 -22 -22 -22 -22 -22 -22 -21 -21 -22 -22 -22 -23 -23 -23 -23 -23 -23 -23 -23 -23 -23 -23 -23 -23 -23 -23 -23 -23 -22
-19 -19 -19 -19 -20 -20 -21 -21 -21 -22 -23 -23 -23 -22 -22 -22 -22 -22 -22 -21 -22 -22 -22 -23 -23 -23 -23 -23 -23 -24 -24 -24 -25 -25 -24 -24 -24 -25 -25 -26 -26 -25 -24
-19 -20 -20 -21 -21 -21 -21 -22 -23 -23 -23 -23 -22 -22 -22 -23 -23 -22 -22 -22 -22 -22 -22 -23 -23 -24 -24 -24 -24 -24 -25 -25 -25 -25 -25 -25 -26 -28 -28 -28 -27 -26 -24
-20 -21 -21 -21 -21 -22 -22 -23 -23 -23 -23 -23 -23 -23 -23 -23 -22 -22 -22 -22 -22 -23 -23 -24 -24 -25 -25 -25 -25 -26 -26 -26 -26 -26 -27 -28 -28 -28 -28 -28 -27 -26 -25
-21 -21 -22 -22 -22 -23 -24 -24 -23 -23 -23 -23 -23 -23 -23 -23 -22 -22 -22 -22 -23 -23 -24 -25 -25 -25 -25 -26 -26 -26 -26 -26 -26 -27 -27 -28 -28 -28 -28 -27 -27 -26 -26
-22 -22 -22 -23 -24 -24 -24 -24 -23 -23 -23 -23 -23 -23 -23 -23 -22 -23 -23 -22 -22 -24 -25 -25 -26 -26 -26 -26 -26 -27 -26 -27 -27 -27 -28 -28 -28 -28 -27 -27 -26 -25 -26
-23 -23 -24 -24 -24 -24 -24 -24 -23 -23 -24 -23 -24 -23 -23 -23 -23 -22 -22 -23 -23 -24 -25 -26 -26 -26 -26 -27 -27 -27 -27 -27 -28 -28 -28 -28 -28 -27 -27 -27 -26 -26 -26
-24 -24 -24 -25 -24 -24 -24 -24 -24 -24 -24 -24 -24 -23 -23 -23 -23 -22 -23 -23 -24 -25 -25 -26 -26 -26 -27 -27 -27 -27 -27 -28 -28 -28 -28 -28 -27 -27 -27 -26 -26 -26 -26
-25 -25 -25 -25 -25 -24 -24 -24 -24 -24 -24 -24 -23 -23 -23 -23 -22 -22 -23 -24 -24 -25 -25 -27 -27 -27 -27 -27 -27 -28 -29 -28 -28 -28 -28 -27 -27 -27 -27 -26 -26 -25 -26
-26 -25 -25 -25 -24 -24 -24 -24 -24 -24 -24 -23 -23 -23 -23 -22 -22 -22 -23 -24 -24 -25 -26 -27 -27 -27 -27 -28 -28 -29 -29 -29 -28 -28 -28 -28 -27 -27 -26 -27 -26 -26 -26
-26 -25 -25 -25 -24 -24 -24 -24 -24 -24 -24 -23 -23 -22 -22 -22 -22 -23 -23 -24 -24 -25 -26 -27 -27 -28 -28 -28 -29 -29 -29 -29 -29 -28 -28 -27 -27 -27 -26 -26 -26 -26 -26
-26 -25 -25 -24 -24 -24 -24 -24 -24 -24 -24 -23 -22 -22 -22 -22 -22 -22 -23 -24 -24 -25 -26 -27 -28 -28 -28 -28 -28 -28 -28 -28 -28 -27 -27 -28 -27 -27 -27 -27 -26 -26 -26
-26 -25 -25 -24 -24 -24 -24 -24 -24 -24 -23 -23 -22 -22 -22 -22 -22 -23 -23 -24 -25 -25 -25 -26 -27 -28 -28 -28 -28 -28 -28 -28 -28 -28 -27 -27 -27 -27 -27 -27 -27 -27 -27
-25 -25 -25 -25 -24 -24 -24 -24 -24 -24 -23 -23 -23 -23 -22 -22 -22 -22 -23 -24 -25 -25 -25 -26 -27 -28 -28 -28 -28 -28 -28 -28 -28 -28 -27 -27 -27 -27 -27 -27 -27 -26 -26
-25 -25 -25 -24 -24 -24 -24 -23 -23 -22 -22 -23 -23 -22 -22 -22 -22 -22 -23 -23 -24 -25 -25 -25 -27 -27 -28 -28 -28 -28 -28 -28 -28 -28 -28 -28 -28 -27 -27 -27 -27 -27 -26
-25 -25 -25 -24 -24 -24 -23 -23 -22 -22 -22 -22 -23 -22 -22 -22 -22 -22 -22 -23 -24 -24 -25 -25 -26 -27 -27 -28 -27 -28 -28 -28 -28 -28 -28 -27 -27 -27 -27 -27 -26 -26 -26
-25 -25 -24 -24 -23 -23 -23 -23 -22 -22 -22 -22 -22 -22 -22 -22 -22 -22 -23 -23 -23 -24 -25 -25 -25 -26 -27 -27 -27 -27 -27 -27 -27 -28 -28 -27 -28 -28 -27 -27 -26 -26 -26
-25 -25 -24 -24 -23 -23 -23 -22 -22 -22 -22 -22 -21 -21 -22 -22 -22 -22 -23 -23 -23 -23 -24 -25 -25 -25 -26 -26 -26 -27 -27 -27 -27 -27 -28 -28 -28 -28 -28 -28 -28 -28 -27
-25 -25 -24 -23 -23 -23 -23 -22 -22 -22 -22 -22 -21 -21 -22 -22 -22 -23 -23 -23 -22 -22 -23 -24 -24 -25 -25 -25 -25 -25 -25 -26 -27 -27 -28 -28 -28 -28 -28 -28 -28 -28 -28
-25 -25 -24 -23 -23 -23 -22 -22 -22 -22 -22 -22 -21 -21 -21 -22 -22 -22 -23 -23 -23 -23 -23 -23 -23 -24 -24 -25 -24 -24 -25 -25 -26 -27 -28 -28 -28 -28 -28 -28 -28 -28 -28
-25 -24 -23 -23 -23 -22 -22 -22 -22 -22 -22 -21 -20 -20 -21 -21 -22 -22 -23 -23 -23 -23 -22 -22 -22 -23 -24 -24 -24 -24 -24 -25 -26 -26 -27 -27 -28 -27 -28 -28 -28 -28 -27
-25 -24 -23 -23 -22 -22 -22 -22 -22 -22 -22 -21 -20 -21 -21 -21 -22 -22 -22 -23 -23 -23 -22 -22 -22 -22 -22 -24 -24 -24 -24 -24 -24 -25 -26 -26 -27 -27 -27 -27 -27 -27 -27
-25 -24 -23 -23 -22 -22 -22 -22 -22 -22 -21 -20 -20 -20 -21 -21 -21 -21 -22 -23 -23 -23 -22 -22 -22 -22 -22 -22 -22 -22 -23 -23 -24 -24 -24 -25 -25 -25 -25 -25 -25 -25 -25
Height
5697 5691 5683 5676 5668 5660 5652 5644 5635 5627 5617 5607 5596 5585 5573 5563 5552 5544 5537 5530 5525 5520 5516 5511 5508 5504 5503 5501 5500 5499 5499 5497 5503 5517 5513 5518 5522 5528 5531 5535 5546 5557 5573
5683 5676 5668 5659 5651 5643 5634 5624 5614 5605 5593 5580 5569 5559 5550 5540 5533 5526 5520 5514 5508 5503 5497 5493 5491 5488 5487 5485 5484 5483 5482 5481 5485 5497 5494 5499 5501 5505 5509 5512 5522 5533 5549
5668 5660 5651 5642 5633 5624 5615 5604 5593 5582 5571 5559 5548 5539 5531 5524 5517 5509 5502 5496 5490 5487 5483 5480 5478 5474 5472 5469 5467 5466 5465 5463 5465 5472 5475 5477 5479 5483 5486 5488 5499 5511 5526
5652 5643 5633 5624 5615 5606 5596 5585 5573 5561 5551 5540 5531 5523 5515 5508 5499 5492 5486 5481 5477 5474 5470 5466 5462 5458 5456 5453 5450 5448 5446 5445 5444 5449 5453 5455 5457 5460 5459 5466 5472 5489 5507
5636 5626 5617 5608 5598 5588 5577 5565 5554 5543 5534 5525 5517 5508 5499 5490 5483 5477 5472 5468 5465 5460 5455 5450 5446 5441 5438 5434 5432 5430 5427 5427 5426 5428 5432 5432 5435 5436 5438 5442 5449 5465 5484
5620 5610 5600 5590 5580 5570 5559 5548 5538 5529 5520 5510 5501 5491 5484 5476 5469 5464 5459 5456 5450 5445 5440 5435 5430 5424 5420 5417 5415 5412 5410 5411 5410 5409 5410 5414 5415 5417 5421 5426 5436 5448 5468
5603 5593 5583 5573 5564 5553 5542 5533 5524 5515 5505 5496 5485 5477 5470 5464 5458 5453 5448 5442 5436 5430 5424 5418 5413 5409 5405 5401 5398 5396 5395 5394 5394 5394 5396 5399 5402 5407 5413 5421 5430 5443 5458
5587 5576 5566 5556 5547 5537 5528 5519 5510 5501 5491 5482 5474 5466 5459 5454 5447 5442 5436 5429 5421 5414 5408 5402 5396 5391 5388 5385 5383 5382 5381 5380 5380 5381 5385 5391 5395 5399 5406 5416 5425 5436 5448
5570 5559 5548 5538 5530 5523 5515 5506 5497 5488 5479 5471 5464 5456 5450 5444 5438 5432 5425 5416 5409 5402 5396 5389 5381 5376 5373 5370 5370 5369 5368 5368 5368 5371 5377 5384 5388 5394 5403 5411 5423 5432 5445
5552 5542 5532 5524 5517 5510 5502 5493 5485 5475 5469 5461 5455 5448 5441 5435 5428 5421 5413 5406 5399 5393 5384 5375 5367 5363 5361 5359 5358 5357 5357 5357 5360 5364 5370 5379 5384 5391 5400 5410 5420 5430 5442
5535 5527 5519 5512 5505 5497 5490 5481 5473 5466 5459 5453 5447 5441 5434 5426 5420 5414 5406 5396 5389 5382 5372 5361 5356 5353 5352 5350 5349 5349 5349 5351 5355 5362 5369 5375 5382 5389 5399 5410 5419 5430 5439
5521 5514 5507 5500 5493 5486 5478 5471 5463 5457 5451 5445 5440 5434 5427 5421 5413 5405 5397 5389 5382 5374 5363 5355 5349 5347 5345 5343 5342 5343 5346 5349 5354 5362 5369 5374 5381 5390 5399 5409 5417 5426 5436
5509 5503 5497 5490 5483 5475 5467 5461 5456 5450 5444 5438 5432 5427 5422 5413 5406 5398 5390 5383 5378 5369 5359 5351 5345 5342 5340 5339 5339 5342 5347 5350 5354 5362 5370 5375 5382 5388 5396 5406 5415 5424 5434
5499 5493 5487 5481 5474 5466 5459 5453 5448 5444 5438 5431 5424 5418 5413 5406 5399 5392 5385 5378 5373 5366 5358 5349 5343 5340 5338 5337 5339 5341 5345 5349 5355 5362 5370 5376 5382 5388 5396 5405 5413 5421 5430
5491 5486 5480 5473 5466 5460 5453 5447 5443 5438 5429 5423 5417 5411 5405 5398 5391 5384 5378 5373 5368 5364 5357 5348 5343 5341 5339 5339 5342 5344 5347 5351 5355 5362 5370 5377 5383 5389 5395 5403 5412 5420 5428
5485 5479 5473 5466 5459 5454 5449 5444 5437 5431 5426 5421 5414 5405 5399 5391 5384 5377 5372 5367 5364 5361 5357 5350 5345 5343 5343 5344 5345 5347 5350 5351 5355 5361 5371 5378 5384 5389 5395 5403 5410 5419 5427
5478 5473 5466 5459 5453 5449 5444 5440 5436 5430 5422 5417 5409 5400 5393 5385 5377 5371 5366 5361 5360 5359 5357 5351 5347 5345 5345 5346 5349 5350 5353 5357 5359 5364 5371 5378 5384 5390 5396 5402 5409 5417 5425
5473 5466 5459 5453 5449 5445 5440 5436 5431 5427 5422 5415 5405 5396 5388 5380 5373 5366 5362 5359 5357 5356 5355 5353 5349 5346 5346 5347 5350 5354 5357 5360 5363 5368 5373 5379 5385 5390 5396 5402 5408 5415 5423
5468 5461 5455 5450 5445 5441 5437 5433 5428 5423 5416 5409 5402 5395 5388 5380 5374 5368 5363 5359 5355 5354 5353 5353 5350 5347 5345 5347 5350 5354 5357 5361 5366 5371 5376 5380 5385 5390 5395 5401 5407 5413 5421
5463 5456 5451 5447 5443 5439 5435 5431 5427 5421 5413 5408 5402 5396 5389 5383 5376 5371 5365 5360 5356 5353 5351 5352 5351 5349 5346 5346 5348 5352 5356 5361 5365 5369 5374 5378 5381 5385 5390 5397 5403 5410 5417
5460 5453 5449 5445 5441 5437 5433 5430 5425 5419 5413 5408 5403 5399 5393 5387 5382 5376 5370 5364 5360 5355 5352 5351 5352 5351 5348 5347 5348 5351 5355 5359 5363 5367 5371 5375 5380 5385 5390 5395 5400 5405 5411
5457 5451 5447 5443 5439 5436 5432 5429 5424 5418 5413 5410 5406 5402 5397 5392 5387 5382 5376 5370 5364 5360 5357 5353 5353 5352 5352 5351 5352 5353 5355 5358 5362 5366 5371 5375 5380 5384 5388 5393 5398 5403 5409
5454 5449 5445 5441 5438 5435 5432 5428 5424 5419 5416 5412 5408 5404 5401 5397 5393 5388 5382 5377 5371 5367 5363 5359 5357 5356 5356 5355 5357 5358 5360 5362 5365 5369 5373 5377 5381 5385 5389 5392 5396 5401 5406
5451 5447 5443 5440 5438 5435 5432 5428 5424 5420 5418 5414 5411 5407 5404 5401 5397 5393 5389 5384 5380 5375 5372 5368 5365 5362 5360 5360 5360 5363 5365 5367 5369 5372 5376 5380 5383 5386 5389 5392 5396 5399 5405
5449 5446 5442 5440 5437 5435 5432 5429 5425 5422 5420 5418 5415 5412 5409 5406 5403 5399 5395 5391 5387 5384 5381 5377 5374 5371 5369 5367 5367 5367 5369 5371 5374 5376 5379 5382 5384 5387 5389 5392 5396 5401 5406
5448 5445 5442 5440 5437 5436 5433 5430 5427 5425 5423 5421 5419 5417 5414 5411 5408 5405 5402 5398 5395 5391 5388 5386 5384 5382 5380 5378 5376 5375 5375 5377 5379 5381 5383 5385 5387 5390 5394 5398 5402 5407 5411
Wind_Speed
59 61 64 67 70 73 76 79 82 84 87 89 92 94 94 91 85 75 66 60 57 58 59 60 61 61 60 58 57 56 56 58 57 51 56 58 63 64 70 76 76 76 73
62 66 69 72 74 76 78 81 83 85 88 90 90 88 79 70 61 57 57 58 59 58 53 50 48 47 46 48 49 51 52 56 56 49 55 55 55 55 56 61 66 76 75
68 71 72 74 75 77 79 81 83 85 85 84 77 67 59 58 58 61 60 55 48 44 42 42 47 48 50 52 52 52 54 56 58 54 55 56 59 63 69 72 70 69 74
69 69 70 72 75 76 79 80 82 81 77 67 59 59 60 60 61 55 48 43 40 44 47 49 50 50 49 49 52 55 58 58 57 53 53 54 57 62 68 69 72 70 69
66 69 71 73 73 75 78 79 76 66 59 58 58 61 62 57 50 47 42 42 44 48 50 49 48 50 54 51 50 53 54 52 49 47 47 51 55 59 62 60 60 61 67
68 69 71 73 74 76 76 70 59 55 57 59 62 60 52 47 47 42 43 45 49 50 48 48 47 45 46 46 48 50 46 44 43 43 44 46 43 41 39 33 36 46 58
69 71 73 74 75 74 67 56 53 55 58 62 56 49 48 45 42 42 46 49 49 48 47 41 42 45 46 44 46 41 39 41 41 37 35 27 29 26 28 27 31 38 47
72 73 75 76 71 61 53 53 53 56 60 53 47 47 44 42 41 45 46 47 50 50 42 44 45 45 41 43 40 36 38 39 34 33 30 26 23 27 28 33 37 39 44
72 75 72 65 59 52 51 54 53 57 51 45 45 42 39 39 42 44 45 47 52 46 43 48 45 39 37 36 31 33 36 31 30 27 26 25 22 29 30 32 37 36 39
72 67 61 58 53 50 53 52 55 50 42 43 39 37 38 40 41 41 44 47 45 45 46 48 37 33 32 28 30 30 26 24 21 23 27 25 22 33 35 34 36 36 34
63 58 54 51 50 50 50 53 49 40 40 38 35 37 37 37 37 40 42 41 42 40 47 39 32 26 24 27 26 20 19 16 18 28 26 20 25 33 30 31 29 43 33
54 52 47 47 48 47 49 48 38 38 36 34 34 30 31 34 38 41 38 36 37 39 43 30 26 21 24 21 14 9 6 13 20 35 22 27 22 30 34 31 30 41 40
46 42 43 45 45 47 47 39 34 32 31 33 29 28 32 37 37 37 36 33 34 36 40 26 21 20 15 10 10 16 11 14 22 33 26 22 23 22 38 36 37 43 42
37 38 43 42 45 45 39 33 31 27 30 30 31 35 37 37 38 35 34 31 30 32 38 25 22 12 5 3 8 14 15 15 20 27 27 23 21 20 31 45 39 43 40
36 38 40 43 42 35 30 31 27 28 30 33 35 37 39 38 36 35 33 31 28 30 35 24 16 7 4 6 11 16 14 13 20 27 26 23 21 21 23 33 44 38 32
35 37 41 40 33 28 25 25 27 28 30 32 37 41 41 37 32 30 31 28 24 25 31 25 13 3 4 16 18 14 12 9 8 24 29 27 21 19 24 36 33 32 30
35 39 39 33 28 24 25 20 19 25 31 35 39 42 35 31 32 33 32 26 20 19 24 24 15 5 3 16 17 19 23 21 11 21 28 22 23 19 26 30 31 35 33
38 40 34 29 24 23 22 20 22 26 29 35 34 33 33 34 33 29 23 20 16 15 16 18 18 5 5 12 22 16 19 20 19 24 27 24 22 20 22 25 28 26 33
38 35 30 25 22 22 19 20 24 28 34 29 28 29 29 29 27 26 23 21 16 12 12 11 14 10 2 14 22 23 21 22 22 18 15 12 10 24 22 24 26 27 31
37 32 29 23 21 19 17 20 24 29 27 24 25 24 25 25 26 27 25 23 21 16 13 11 9 12 3 7 21 27 23 23 25 19 16 14 15 23 25 28 29 30 31
32 29 26 21 19 15 16 20 25 27 20 21 20 20 22 23 26 28 26 24 20 19 15 13 11 10 9 5 6 15 20 22 22 20 17 19 19 18 19 21 24 29 32
29 27 22 20 14 13 16 20 25 20 17 19 16 17 22 23 25 28 29 28 22 21 25 22 15 10 8 9 8 10 14 17 18 18 19 17 17 17 17 19 22 25 29
28 25 21 16 11 12 16 20 22 14 17 20 18 15 16 17 18 21 26 28 27 24 25 25 24 13 12 11 12 12 10 12 14 15 15 14 13 12 12 16 20 24 26
27 25 20 13 10 12 16 21 18 13 16 18 17 18 16 16 15 18 24 22 23 22 26 26 22 20 17 14 14 13 13 13 13 13 14 14 13 9 12 15 19 22 26
25 22 17 11 9 12 16 20 15 15 14 14 17 17 20 16 16 16 23 22 18 21 24 25 25 24 23 21 16 16 14 13 12 12 12 12 9 9 14 18 20 21 23
23 19 15 8 8 11 15 18 13 16 13 11 14 16 20 20 18 18 21 20 18 17 18 20 22 23 23 23 26 25 21 17 15 14 13 16 17 21 25 25 25 24 24
Wind_Direction
297 298 299 301 301 301 301 301 301 301 301 302 302 303 301 300 299 297 294 293 292 290 288 286 283 280 277 275 273 272 270 269 267 260 258 255 252 249 247 247 244 241 237
300 301 301 302 302 302 303 303 303 304 305 305 303 302 302 299 298 298 296 294 292 290 288 285 282 283 284 282 280 276 272 271 270 263 261 259 255 247 243 247 245 241 236
301 302 303 303 304 304 304 305 306 306 305 304 304 303 303 302 300 299 298 296 294 292 291 291 291 288 285 282 279 276 274 273 271 267 263 260 256 253 252 252 249 243 236
303 303 304 304 305 305 306 306 306 306 306 304 304 304 304 303 302 300 297 294 292 290 289 288 285 284 282 279 276 276 277 276 273 269 263 258 255 255 254 251 248 243 235
305 305 304 305 305 306 308 308 307 306 305 306 306 306 305 304 302 299 296 292 294 294 289 290 289 286 285 279 281 281 280 276 271 267 262 261 262 259 258 253 246 234 226
305 305 306 306 307 309 308 307 305 306 308 308 308 307 305 304 302 298 295 294 296 295 294 294 294 290 285 282 280 279 276 273 272 273 271 266 262 252 252 233 218 217 216
308 308 307 307 308 308 306 303 308 310 310 311 309 307 305 302 300 299 300 299 299 299 300 299 299 294 286 282 278 277 277 278 277 270 262 254 257 229 210 205 205 206 205
309 308 307 308 307 304 303 308 305 310 313 312 309 307 303 302 301 301 304 303 307 308 308 310 304 298 282 284 277 276 278 278 268 259 246 233 232 214 193 199 201 200 202
307 308 309 306 305 303 307 310 310 313 313 311 310 308 306 303 305 306 308 311 311 309 310 308 305 295 286 283 280 278 278 269 259 244 236 220 226 195 191 201 194 188 205
308 308 306 306 305 306 309 312 315 314 312 311 309 310 311 310 311 317 316 314 310 309 315 313 302 296 289 283 282 281 271 255 240 235 199 188 201 188 187 182 183 200 206
306 304 304 305 306 309 312 315 316 313 312 312 313 318 317 317 319 319 319 317 318 323 321 312 300 294 285 286 284 271 258 234 224 192 189 192 192 180 186 176 189 203 199
304 304 307 309 310 312 314 316 316 314 315 315 319 324 322 321 321 324 324 323 325 330 332 319 304 293 289 284 269 236 205 205 212 187 170 169 166 179 182 180 176 191 199
304 307 310 313 314 315 316 317 317 317 317 318 324 329 328 326 327 331 330 326 328 334 341 329 311 300 289 266 216 158 175 209 202 183 170 181 180 177 188 182 186 196 199
311 311 315 316 317 318 319 319 318 320 321 326 332 329 329 328 327 330 332 331 329 343 344 339 333 315 292 227 183 164 171 192 201 198 197 196 195 191 185 190 195 207 214
316 316 317 318 319 321 321 320 318 325 333 334 331 326 325 327 326 326 330 330 326 335 341 349 348 352 24 130 143 143 148 167 199 199 189 180 179 185 190 192 201 205 205
320 320 320 322 324 324 324 321 320 332 335 331 326 323 326 328 330 326 326 324 317 328 334 352 352 357 64 144 140 119 130 124 144 182 187 190 188 195 190 183 191 197 196
323 323 325 327 328 328 326 322 329 333 331 327 326 324 331 332 326 326 325 321 314 322 333 345 351 357 153 175 159 156 152 159 160 173 185 191 189 185 190 194 198 199 199
327 329 330 332 332 328 329 334 340 335 329 328 331 335 338 341 345 346 345 339 327 324 333 344 354 356 160 170 180 171 174 173 173 169 165 165 171 181 188 195 196 197 203
329 332 332 334 333 331 336 344 342 336 334 340 348 350 358 2 4 1 358 356 347 332 334 353 355 9 146 179 185 191 182 172 163 165 172 184 202 200 201 202 204 205 205
333 335 337 336 334 336 343 348 342 340 341 353 359 12 16 11 7 8 13 15 12 360 337 351 9 5 39 164 194 201 207 202 194 212 218 222 205 196 200 207 213 217 212
336 336 337 335 337 347 347 348 344 346 351 3 15 22 23 22 24 24 20 17 22 24 6 358 359 21 19 111 150 185 201 206 211 212 201 183 181 187 192 194 197 202 206
339 339 337 338 344 347 352 349 349 355 3 11 11 21 25 28 35 39 34 29 31 31 31 27 32 44 45 101 113 133 149 160 167 172 177 182 185 186 187 191 198 202 203
343 342 341 341 348 352 355 352 357 7 10 12 6 354 360 11 25 36 35 38 37 37 34 34 34 65 83 102 132 139 143 151 153 165 169 169 171 176 180 187 193 196 196
343 343 342 343 353 359 357 356 2 10 10 11 15 27 32 24 32 47 38 55 49 49 52 52 48 47 60 86 112 142 138 149 147 151 160 167 165 170 172 176 184 186 187
343 342 342 344 359 5 359 357 10 11 34 28 53 45 44 41 32 31 41 53 59 56 62 62 55 59 58 67 86 102 127 146 150 153 157 165 174 179 163 160 160 166 175
343 344 343 348 6 8 359 359 16 24 45 47 70 59 47 37 37 40 41 50 64 59 56 59 60 60 68 74 73 79 93 111 119 124 127 128 127 128 125 126 127 128 138